This is the latest recevied weather packets stored in our database for station/object AG1T-20. If no packets are shown the sender has not sent any weather packets the latest 10 day(s).
| Time | Temp. | Humidity | Pressure | Rain* | Wind** | Luminosity | Snow |
|---|---|---|---|---|---|---|---|
| 1788020405 | 17.22° C | 82% | 1020.8 hPa | 0 mm | - | 26 W/m² | - |
| 1788019805 | 17.78° C | 81% | 1020.8 hPa | 0 mm | - | 38 W/m² | - |
| 1788019205 | 17.22° C | 84% | 1020.8 hPa | 0 mm | - | 124 W/m² | - |
| 1788018605 | 17.78° C | 79% | 1020.4 hPa | 0 mm | - | 125 W/m² | - |
| 1788018004 | 17.22° C | 78% | 1020.4 hPa | 0.76 mm | - | 82 W/m² | - |
| 1788017404 | 17.22° C | 81% | 1020.4 hPa | 1.27 mm | - | 42 W/m² | - |
| 1788016804 | 17.22° C | 77% | 1020.4 hPa | 1.52 mm | - | 42 W/m² | - |
| 1788016205 | 17.22° C | 77% | 1020.4 hPa | 1.52 mm | - | 73 W/m² | - |
| 1788015604 | 16.67° C | 80% | 1020.4 hPa | 1.52 mm | - | 62 W/m² | - |
| 1788015005 | 16.11° C | 87% | 1021.2 hPa | 1.52 mm | - | 33 W/m² | - |
| 1788014405 | 16.11° C | 89% | 1021.2 hPa | 0.76 mm | - | 9 W/m² | - |
| 1788013805 | 16.11° C | 88% | 1021.2 hPa | 0.25 mm | - | 2 W/m² | - |
| 1788013204 | 16.67° C | 86% | 1021.2 hPa | 0 mm | - | 3 W/m² | - |
| 1788012605 | 16.67° C | 86% | 1021.2 hPa | 0 mm | - | 2 W/m² | - |
| 1788012004 | 16.67° C | 84% | 1021.2 hPa | 0 mm | - | 3 W/m² | - |
| 1788011405 | 17.22° C | 82% | 1020.6 hPa | 0 mm | - | 7 W/m² | - |
| 1788010804 | 17.22° C | 83% | 1020.6 hPa | 0 mm | - | 14 W/m² | - |
| 1788010205 | 17.22° C | 82% | 1020.6 hPa | 0 mm | - | 9 W/m² | - |
| 1788009605 | 17.22° C | 81% | 1020.6 hPa | 0 mm | - | 6 W/m² | - |
| 1788009004 | 17.22° C | 78% | 1020.6 hPa | 0 mm | - | 3 W/m² | - |
| 1788008404 | 17.78° C | 77% | 1020.6 hPa | 0 mm | - | 1 W/m² | - |
| 1788007804 | 17.78° C | 74% | 1020.5 hPa | 0 mm | - | 0 W/m² | - |
| 1788007204 | 18.33° C | 73% | 1020.5 hPa | 0 mm | - | 0 W/m² | - |
| 1788006604 | 18.33° C | 71% | 1020.5 hPa | 0 mm | - | 0 W/m² | - |
| 1788006004 | 18.33° C | 71% | 1020.5 hPa | 0 mm | - | 0 W/m² | - |
* Rain latest hour (hover to see other rain measurements)
** Current wind speed in m/s (hover to see current wind gust speed)